Location: ??
(31.9467°N, 34.8903°E)
Time: 22:23:19
(UTC+00:00)

N. Korean satellite - Visible Passes

Search period start: 22 January 2021 00:00
Search period end: 01 February 2021 00:00
Orbit: 452 x 502 km, 97.2° (Epoch: 22 January)

Date Brightness Start Highest point End Pass type
(mag) Time Alt. Az. Time Alt. Az. Time Alt. Az.
22 Jan 6.4 03:01:21 10° NNE 03:04:49 85° ESE 03:08:13 10° S visible
23 Jan 8.3 02:35:07 10° NNE 02:38:12 31° E 02:41:16 10° SSE visible
24 Jan 9.7 02:09:51 10° ENE 02:11:31 13° E 02:13:11 10° ESE visible
24 Jan 7.6 03:42:02 10° NNW 03:44:47 23° WNW 03:47:30 10° SW visible
25 Jan 6.4 03:14:57 10° N 03:18:20 57° WNW 03:21:40 10° SSW visible
26 Jan 7.2 02:48:25 10° NNE 02:51:47 51° E 02:55:05 10° S visible
27 Jan 9.1 02:22:31 10° NE 02:25:07 20° E 02:27:41 10° SE visible
27 Jan 8.1 03:56:14 10° NW 03:58:13 15° WNW 04:00:12 10° WSW visible
28 Jan 7.0 03:28:40 10° N 03:31:48 34° WNW 03:34:54 10° SW visible
29 Jan 6.3 03:01:51 10° NNE 03:05:17 87° ESE 03:08:40 10° S visible
30 Jan 8.3 02:35:35 10° NNE 02:38:40 31° E 02:41:43 10° SSE visible
31 Jan 9.7 02:10:14 10° ENE 02:11:57 13° E 02:13:40 10° SE visible
31 Jan 7.6 03:42:31 10° NNW 03:45:13 22° WNW 03:47:53 10° SW visible
